[[{"header":{"parameterUnit":"m.s-1","parameterCategory":1,"la1":30.2991,"la2":30.254,"lo1":-89.0895,"lo2":-89.0444,"dy":0.0017,"dx":0.0017,"nx":28,"ny":28,"refTime":"2025-02-03T03:00:00:Z","depth":0,"parameterNumber":2,"parameterNumberName":"U-component_of_WINDS"},"data":[0,0,0,0,0,0,0,0,0,0,0,0,0,0,0,0,0,0,0,0,0,0,0,0,0,0,0,0,0,0,0,0,0,0,0,0,0,0,0,0,0,0,0,0,0,0,0,0,0,0,0,0,0,0,0,0,0,0,-1.3375,-1.3374,0,-1.3269,-1.3268,-1.3267,-1.3206,-1.3206,-1.3206,-1.3206,-1.3097,-1.3095,-1.3092,0,0,0,0,0,0,0,0,0,0,0,0,0,-1.3525,-1.3523,-1.3375,-1.3374,-1.3372,-1.3269,-1.3268,-1.3266,-1.3206,-1.3206,-1.3206,-1.3206,-1.3098,-1.3095,-1.3092,0,0,0,0,0,0,0,0,0,0,0,0,0,-1.3444,-1.3522,-1.3375,-1.333,-1.3325,-1.3269,-1.3268,-1.3266,-1.3206,-1.3206,-1.3206,-1.3206,-1.3099,-1.3095,-1.3091,-1.3072,0,0,-1.3079,-1.3077,0,0,0,0,0,0,0,0,-1.3449,-1.3438,-1.3338,-1.3333,-1.3327,-1.3251,-1.3281,-1.3201,-1.3206,-1.3251,-1.3206,-1.3205,-1.3148,-1.314,-1.3121,-1.3067,-1.3063,-1.3078,-1.3076,-1.3074,-1.3073,0,0,0,0,0,0,0,-1.3454,-1.3443,-1.3333,-1.3337,-1.333,-1.3315,-1.3303,-1.3265,-1.3203,-1.3247,-1.3243,-1.3231,-1.3145,-1.3125,-1.3118,-1.3061,-1.3079,-1.3075,-1.3072,-1.3071,-1.2986,-1.2986,0,0,0,0,0,0,-1.3467,-1.3448,-1.3336,-1.333,-1.3388,-1.3313,-1.3299,-1.3275,-1.3203,-1.3192,-1.3232,-1.3229,-1.3132,-1.3123,-1.3114,-1.3086,-1.3074,-1.3071,-1.3068,-1.2986,-1.2986,-1.2986,0,0,0,0,0,0,-1.3471,-1.3458,-1.3341,-1.3387,-1.3371,-1.331,-1.3284,-1.3274,-1.3253,-1.3191,-1.318,-1.3222,-1.3132,-1.312,-1.3083,-1.3082,-1.3069,-1.3065,-1.2985,-1.2986,-1.2986,-1.3032,0,0,0,0,0,0,-1.3475,-1.3459,-1.3452,-1.3388,-1.3369,-1.3311,-1.3284,-1.3272,-1.3246,-1.3242,-1.3179,-1.3169,-1.313,-1.3089,-1.3079,-1.3076,-1.3062,-1.2985,-1.2986,-1.2986,-1.303,-1.3033,-1.3036,0,0,0,0,0,-1.3481,-1.3469,-1.3452,-1.3438,-1.3358,-1.3312,-1.3301,-1.3257,-1.3247,-1.3238,-1.3198,-1.3171,-1.3084,-1.3086,-1.3074,-1.307,-1.2985,-1.2985,-1.2986,-1.3028,-1.3033,-1.3036,0,0,0,0,0,0,-1.3534,-1.346,-1.344,-1.3407,-1.3366,-1.3301,-1.3289,-1.3263,-1.3224,-1.3222,-1.3169,-1.3155,-1.3123,-1.3093,-1.3097,-1.3047,-1.3032,-1.303,-1.3068,-1.3072,-1.3075,-1.3082,-1.3058,0,0,0,0,0,-1.3542,-1.3511,-1.3447,-1.3424,-1.3405,-1.3351,-1.3329,-1.3299,-1.3254,-1.3237,-1.3194,-1.3152,-1.3115,-1.3092,-1.3055,-1.3026,-1.3011,-1.3017,-1.302,-1.3023,-1.3021,-1.3003,-1.3004,-1.2987,-1.2987,-1.2987,0,0,-1.3558,-1.3514,-1.3497,-1.3434,-1.3399,-1.3367,-1.3337,-1.3305,-1.328,-1.3232,-1.3194,-1.3162,-1.3111,-1.3078,-1.3061,-1.3052,-1.3023,-1.3024,-1.3026,-1.3023,-1.3003,-1.3005,-1.3007,-1.2987,-1.2987,-1.2987,0,0,-1.3571,-1.3535,-1.3511,-1.3476,-1.3423,-1.3388,-1.3382,-1.3322,-1.3298,-1.326,-1.3222,-1.3193,-1.3131,-1.3096,-1.307,-1.307,-1.3043,-1.306,-1.3076,-1.3059,-1.306,-1.3061,-1.306,-1.306,-1.3059,-1.3059,-1.3059,0,-1.3597,-1.3548,-1.3502,-1.3472,-1.3445,-1.34,-1.3375,-1.3344,-1.3282,-1.3264,-1.3255,-1.3175,-1.3138,-1.3096,-1.3096,-1.3077,-1.3069,-1.3066,-1.3064,-1.3064,-1.3064,-1.3062,-1.3062,-1.3061,-1.3061,-1.3061,-1.306,0,-1.3583,-1.3549,-1.3536,-1.3477,-1.3449,-1.3422,-1.3372,-1.3349,-1.3321,-1.3287,-1.3248,-1.3202,-1.3154,-1.3142,-1.3115,-1.3096,-1.3091,-1.3074,-1.3056,-1.3069,-1.3066,-1.3065,-1.3064,-1.3064,-1.3063,-1.3062,0,0,-1.3625,-1.3541,-1.3537,-1.3509,-1.3447,-1.342,-1.3391,-1.3344,-1.3325,-1.3285,-1.3258,-1.3207,-1.319,-1.3161,-1.3129,-1.3115,-1.3116,-1.3098,-1.3096,-1.3102,-1.3091,-1.3104,-1.3104,-1.3099,-1.3098,-1.3098,-1.3095,0,-1.3627,-1.3572,-1.353,-1.3491,-1.3459,-1.3416,-1.339,-1.335,-1.3317,-1.3285,-1.3249,-1.3213,-1.3193,-1.3175,-1.3159,-1.3119,-1.3113,-1.3119,-1.3073,-1.3072,-1.3085,-1.3102,-1.3116,-1.3115,-1.3093,-1.3093,-1.3093,0,-1.3623,-1.3583,-1.354,-1.3481,-1.3466,-1.3444,-1.3398,-1.3368,-1.3321,-1.3298,-1.3266,-1.3234,-1.3201,-1.3188,-1.3142,-1.3147,-1.3126,-1.3104,-1.3103,-1.3095,-1.3082,-1.3094,-1.3113,-1.3113,-1.3091,-1.3091,-1.3092,0,-1.3656,-1.3592,-1.3557,-1.3535,-1.3467,-1.3452,-1.3423,-1.3375,-1.335,-1.331,-1.3292,-1.3249,-1.3225,-1.3193,-1.315,-1.3144,-1.3107,-1.3091,-1.3087,-1.3088,-1.3079,-1.308,-1.3094,-1.3069,-1.3069,-1.3069,-1.3069,0,-1.3662,-1.3637,-1.3571,-1.355,-1.3521,-1.3474,-1.3447,-1.3414,-1.3372,-1.3344,-1.3305,-1.3279,-1.3225,-1.3193,-1.3159,-1.3125,-1.3115,-1.3095,-1.3086,-1.3098,-1.31,-1.3082,-1.308,-1.3068,-1.3068,-1.3069,-1.3069,0,-1.3694,-1.3649,-1.3608,-1.3547,-1.3531,-1.3512,-1.3459,-1.3437,-1.3402,-1.3367,-1.3356,-1.3301,-1.3261,-1.3216,-1.3161,-1.3138,-1.3106,-1.3094,-1.3122,-1.3116,-1.3114,-1.3114,-1.3115,-1.3112,-1.3091,-1.3091,-1.3091,0,-1.37,-1.368,-1.3616,-1.3594,-1.3566,-1.3531,-1.3505,-1.3457,-1.3432,-1.3377,-1.3361,-1.3319,-1.3281,-1.322,-1.3175,-1.3133,-1.3119,-1.3122,-1.3112,-1.3124,-1.3117,-1.3118,-1.3115,-1.3124,-1.3125,-1.3125,-1.3125,0,-1.3715,-1.3694,-1.3657,-1.3613,-1.3582,-1.3545,-1.3507,-1.3491,-1.3436,-1.3409,-1.3367,-1.3339,-1.3283,-1.324,-1.3193,-1.3162,-1.3134,-1.3129,-1.3125,-1.3136,-1.3152,-1.3142,-1.3128,-1.3129,-1.3128,-1.3128,-1.3128,-1.3128,-1.3733,-1.3713,-1.3664,-1.3625,-1.3591,-1.3556,-1.3531,-1.3494,-1.3458,-1.3408,-1.3383,-1.3342,-1.3296,-1.3229,-1.32,-1.3167,-1.3157,-1.3152,-1.3151,-1.315,-1.3153,-1.3159,-1.3158,-1.3158,-1.3158,-1.3157,-1.3157,0,-1.3745,-1.3712,-1.3676,-1.3623,-1.3592,-1.3569,-1.3525,-1.35,-1.3464,-1.3423,-1.3388,-1.334,-1.3299,-1.3252,-1.3207,-1.319,-1.3176,-1.318,-1.318,-1.3173,-1.3164,-1.3171,-1.3192,-1.3192,-1.3192,-1.3192,-1.3192,-1.3192,-1.3747,-1.3712,-1.3685,-1.3632,-1.3599,-1.3558,-1.3534,-1.3502,-1.3469,-1.3417,-1.3382,-1.3352,-1.3308,-1.3261,-1.3222,-1.3209,-1.3194,-1.3201,-1.3185,-1.3177,-1.3174,-1.3171,-1.3177,-1.3199,-1.3199,-1.3196,-1.3196,-1.3196]},{"header":{"parameterUnit":"m.s-1","parameterCategory":1,"la1":30.2991,"la2":30.254,"lo1":-89.0895,"lo2":-89.0444,"dy":0.0017,"dx":0.0017,"nx":28,"ny":28,"refTime":"2025-02-03T03:00:00:Z","depth":0,"parameterNumber":3,"parameterNumberName":"V-component_of_WINDS"},"data":[0,0,0,0,0,0,0,0,0,0,0,0,0,0,0,0,0,0,0,0,0,0,0,0,0,0,0,0,0,0,0,0,0,0,0,0,0,0,0,0,0,0,0,0,0,0,0,0,0,0,0,0,0,0,0,0,0,0,1.8939,1.8939,0,1.8933,1.8933,1.8933,1.8918,1.8917,1.8917,1.8917,1.891,1.891,1.891,0,0,0,0,0,0,0,0,0,0,0,0,0,1.8937,1.8938,1.8939,1.8939,1.8939,1.8933,1.8933,1.8933,1.8918,1.8917,1.8917,1.8917,1.891,1.891,1.891,0,0,0,0,0,0,0,0,0,0,0,0,0,1.8936,1.8938,1.8939,1.8931,1.893,1.8933,1.8933,1.8933,1.8918,1.8917,1.8917,1.8916,1.891,1.891,1.891,1.8921,0,0,1.8911,1.8911,0,0,0,0,0,0,0,0,1.8936,1.8936,1.8932,1.8931,1.893,1.8926,1.893,1.8929,1.8918,1.8922,1.8917,1.8916,1.8916,1.8915,1.8915,1.8921,1.8921,1.8911,1.8911,1.8911,1.8911,0,0,0,0,0,0,0,1.8936,1.8936,1.8937,1.8932,1.8931,1.8927,1.8926,1.893,1.8922,1.8922,1.8921,1.892,1.8915,1.8915,1.8915,1.8921,1.8911,1.8911,1.8911,1.8911,1.8937,1.8937,0,0,0,0,0,0,1.8937,1.8936,1.8937,1.8937,1.8932,1.8928,1.8927,1.8928,1.8922,1.892,1.8921,1.892,1.8915,1.8915,1.8915,1.8928,1.8911,1.8911,1.8911,1.8936,1.8937,1.8937,0,0,0,0,0,0,1.8937,1.8937,1.8937,1.8936,1.8936,1.8928,1.8929,1.8928,1.8928,1.8921,1.8919,1.8922,1.8915,1.8914,1.892,1.8928,1.8911,1.8912,1.8936,1.8936,1.8937,1.8955,0,0,0,0,0,0,1.8937,1.8937,1.8941,1.8936,1.8936,1.8943,1.893,1.8928,1.8928,1.8927,1.8922,1.8921,1.8914,1.892,1.892,1.8928,1.8912,1.8935,1.8936,1.8937,1.8954,1.8956,1.8959,0,0,0,0,0,1.8937,1.8946,1.8942,1.8942,1.8941,1.8943,1.8943,1.8936,1.8929,1.8933,1.8929,1.8921,1.8927,1.8921,1.8921,1.8929,1.8934,1.8936,1.8937,1.8953,1.8956,1.8959,0,0,0,0,0,0,1.8952,1.8945,1.894,1.8948,1.8946,1.8941,1.8945,1.8939,1.8939,1.8938,1.8928,1.8927,1.8935,1.8932,1.8925,1.894,1.8929,1.8931,1.8941,1.8944,1.8947,1.8948,1.8912,0,0,0,0,0,1.8956,1.8959,1.8953,1.896,1.896,1.8953,1.8954,1.8948,1.8946,1.8945,1.8941,1.894,1.8941,1.8942,1.8943,1.8953,1.8953,1.8959,1.8961,1.8963,1.8965,1.8971,1.8974,1.8942,1.8942,1.8942,0,0,1.8965,1.8962,1.8964,1.8963,1.8961,1.8965,1.8952,1.8956,1.8959,1.8946,1.8951,1.8949,1.8946,1.8954,1.8958,1.8952,1.8974,1.8965,1.8966,1.8967,1.8973,1.8976,1.8979,1.8942,1.8942,1.8942,0,0,1.8983,1.898,1.8987,1.8985,1.8983,1.8978,1.898,1.8975,1.8973,1.8979,1.897,1.8973,1.8975,1.8974,1.8974,1.8993,1.8986,1.8993,1.9007,1.9013,1.9015,1.9018,1.9026,1.9029,1.8995,1.8995,1.8995,0,1.8994,1.8999,1.8991,1.8995,1.8996,1.8985,1.8992,1.8991,1.8989,1.899,1.8984,1.8988,1.8985,1.8994,1.8999,1.8998,1.9001,1.8994,1.9016,1.9018,1.902,1.9027,1.903,1.8996,1.8996,1.8996,1.8996,0,1.9013,1.9016,1.9022,1.9021,1.9022,1.9028,1.9021,1.9023,1.9018,1.9014,1.9021,1.9017,1.9018,1.902,1.9014,1.9028,1.9025,1.9017,1.9007,1.9024,1.9031,1.9034,1.8997,1.8997,1.8997,1.8996,0,0,1.904,1.9035,1.9038,1.9038,1.9035,1.9037,1.9043,1.9044,1.9047,1.9046,1.9051,1.9054,1.9048,1.9047,1.9042,1.9047,1.9064,1.9039,1.9039,1.9045,1.9081,1.9087,1.909,1.9059,1.906,1.906,1.9081,0,1.9058,1.9067,1.9061,1.9072,1.9076,1.9066,1.9071,1.907,1.9067,1.9069,1.9066,1.9069,1.9059,1.906,1.9064,1.9061,1.9071,1.9059,1.9065,1.9065,1.9067,1.9094,1.91,1.912,1.9084,1.9084,1.9084,0,1.908,1.9081,1.9092,1.909,1.9091,1.9096,1.9097,1.91,1.9099,1.9096,1.9097,1.909,1.9096,1.9085,1.9094,1.9086,1.9088,1.9086,1.9087,1.9088,1.9076,1.9097,1.9126,1.913,1.9088,1.9088,1.9088,0,1.91,1.9104,1.9112,1.9112,1.9109,1.9113,1.9111,1.911,1.9111,1.9113,1.9114,1.9115,1.9116,1.9118,1.9112,1.9105,1.9122,1.9111,1.9121,1.9121,1.9126,1.9126,1.9157,1.9125,1.9125,1.9125,1.9125,0,1.9121,1.9129,1.9121,1.9126,1.9134,1.9127,1.9136,1.9134,1.9133,1.9137,1.9128,1.9133,1.9125,1.9129,1.9124,1.9133,1.9133,1.9132,1.913,1.9133,1.9133,1.9135,1.9134,1.9126,1.9126,1.9125,1.9125,0,1.9145,1.914,1.9148,1.9145,1.9144,1.9151,1.9148,1.9153,1.915,1.9156,1.9157,1.9151,1.9156,1.915,1.9153,1.915,1.9163,1.9159,1.9163,1.9163,1.9174,1.9173,1.9208,1.9213,1.9177,1.9177,1.9177,0,1.916,1.9165,1.9163,1.9166,1.9166,1.917,1.9172,1.9165,1.9167,1.9167,1.9172,1.9176,1.9178,1.9186,1.9182,1.9185,1.9182,1.9194,1.9183,1.9185,1.9184,1.9184,1.9185,1.9197,1.9197,1.9198,1.9198,0,1.9186,1.9184,1.9187,1.919,1.9192,1.9194,1.9195,1.9198,1.919,1.9194,1.9198,1.92,1.9205,1.9209,1.9211,1.921,1.9203,1.9202,1.9205,1.9208,1.9211,1.9211,1.9171,1.9201,1.9201,1.9201,1.92,1.92,1.9207,1.9212,1.9212,1.9216,1.9216,1.9218,1.9222,1.922,1.9224,1.9227,1.9222,1.9228,1.9228,1.9231,1.9231,1.9236,1.923,1.9234,1.9235,1.9237,1.9239,1.9209,1.9236,1.9236,1.9235,1.9235,1.9235,0,1.9234,1.9234,1.9237,1.924,1.9243,1.9237,1.9238,1.9241,1.9247,1.9247,1.925,1.9256,1.926,1.9258,1.9261,1.9266,1.9263,1.9267,1.9267,1.9268,1.9243,1.924,1.927,1.927,1.927,1.927,1.927,1.927,1.9249,1.9258,1.9256,1.9265,1.9264,1.9271,1.9272,1.9274,1.9274,1.9281,1.9285,1.9283,1.9283,1.9287,1.929,1.929,1.9292,1.9298,1.9296,1.9273,1.9269,1.9266,1.9264,1.9298,1.9298,1.9321,1.9321,1.9321]}]]